Wetbulb
61.42 60.73 60.06 59.88 58.82 57.98 57.25 56.30 55.84 55.99 56.68 57.85 57.33 56.98 56.78 56.94 56.26 55.10 54.21 54.21 54.69 54.86 54.98 55.05 54.92 54.64 54.43 54.36 54.40 54.45 54.43 54.27 54.15 54.21 53.99 53.55 53.15 52.89 52.67 52.85 53.17 53.17 53.12 53.17 52.85 53.21 53.71 53.77 54.81 56.17 57.12 56.85 57.48 58.02 58.20 57.97 57.02 55.94 55.89 57.95 58.14 58.27 58.73 59.53 59.99 59.85 59.59 59.36 58.27
56.34 55.83 55.61 55.93 55.52 55.16 54.67 54.22 53.95 53.97 54.12 54.21 53.79 53.56 53.56 53.87 54.04 53.90 53.81 54.00 54.64 54.87 54.82 54.81 54.40 54.23 53.92 53.74 53.83 53.66 53.35 53.09 52.87 52.96 52.83 52.17 51.76 51.59 51.63 51.95 52.09 52.45 53.00 53.22 51.91 52.32 53.09 53.00 53.99 55.35 56.53 56.89 57.66 57.84 57.93 58.25 58.11 56.97 55.84 55.93 55.71 56.43 57.47 58.23 57.33 57.37 57.87 58.32 57.60
52.50 52.54 52.80 53.12 53.38 53.61 53.45 52.88 52.84 52.87 53.00 52.98 52.95 52.88 52.95 53.09 53.50 53.67 53.88 53.90 53.93 54.11 54.24 54.31 53.95 53.57 53.16 52.82 52.78 52.65 52.33 52.06 51.88 51.94 51.76 51.27 50.91 50.82 51.00 51.46 51.55 52.77 54.17 55.03 53.77 54.17 55.08 54.94 55.48 56.34 56.97 57.02 56.97 56.48 56.03 56.16 56.51 56.15 55.34 54.71 54.53 54.85 55.39 55.39 55.16 55.66 56.57 57.25 57.42
51.26 51.39 51.62 51.67 51.96 52.17 52.20 52.38 52.64 52.94 53.29 53.58 53.81 53.90 53.90 53.71 53.83 53.75 53.52 53.16 53.02 53.13 53.26 53.20 53.25 52.98 52.56 52.29 51.79 51.43 51.30 51.44 50.94 50.68 50.41 50.28 50.28 50.32 50.55 50.91 51.23 52.09 53.17 54.26 54.85 55.43 55.89 55.98 55.89 55.85 55.67 55.39 55.26 54.94 54.76 54.85 54.93 54.21 53.22 52.63 52.76 53.13 53.31 53.13 53.22 53.72 54.35 55.03 54.84
50.22 50.32 50.48 50.66 51.19 51.60 52.02 52.41 52.92 53.31 53.59 53.86 53.99 53.95 53.89 53.69 53.69 53.51 53.35 53.19 52.79 52.63 52.40 52.08 52.40 52.32 51.98 51.61 50.89 50.49 50.45 50.67 51.12 50.81 50.18 49.69 49.87 50.01 50.19 50.64 51.27 51.73 52.00 52.36 53.04 53.81 54.39 54.43 54.30 54.13 53.76 53.45 53.31 52.91 52.77 53.26 53.58 52.72 51.59 51.00 50.95 51.09 51.18 51.27 51.13 51.18 51.45 51.99 51.68
49.30 49.47 49.77 50.15 50.92 51.53 52.16 52.58 52.87 53.10 53.39 53.71 53.54 53.42 53.29 53.32 53.29 53.21 52.93 52.53 51.98 51.61 51.57 51.92 52.02 51.75 51.21 50.49 50.04 50.09 50.27 50.31 50.22 50.09 49.91 49.73 50.05 50.41 50.91 51.59 52.13 52.40 52.63 52.85 52.94 53.03 53.07 53.21 52.99 52.63 52.31 52.27 52.04 51.95 52.18 52.67 52.71 51.94 50.82 49.64 49.32 49.28 49.32 49.14 49.05 49.46 50.14 50.59 50.00
49.62 50.00 50.30 50.63 51.32 51.93 52.29 52.43 52.63 52.77 52.94 53.13 52.84 52.71 52.57 52.56 52.38 52.07 51.67 51.64 51.20 51.07 51.25 51.65 50.93 50.67 50.26 49.50 49.73 49.86 50.00 49.82 49.73 49.86 50.13 50.18 50.95 51.58 52.07 52.21 52.56 52.57 52.53 52.44 52.35 52.35 52.26 52.22 51.77 51.49 51.31 51.31 51.00 51.09 51.27 51.49 51.54 50.90 49.87 48.28 47.97 47.97 48.19 48.24 48.24 48.60 49.01 49.28 48.64
50.65 50.90 51.10 51.36 51.74 52.04 52.14 52.25 52.39 52.36 52.38 52.34 52.00 51.66 51.38 51.48 51.18 50.83 50.48 50.26 49.99 50.08 50.17 50.04 49.09 48.82 48.87 48.91 49.14 49.09 48.96 48.82 49.37 50.13 51.03 51.44 51.30 51.48 51.74 51.83 51.79 51.75 51.67 51.76 51.67 51.63 51.49 51.45 50.86 50.59 50.37 50.05 49.78 49.73 49.91 50.18 50.04 49.41 48.46 47.24 47.06 47.11 47.38 47.60 47.79 47.97 48.06 48.01 47.51
50.98 50.90 51.06 51.37 51.47 51.45 51.43 51.53 51.58 51.54 51.37 51.04 50.54 50.33 50.25 50.38 50.11 50.02 49.67 49.04 49.00 48.91 48.68 48.37 47.83 47.51 47.47 47.60 47.65 47.74 47.87 48.15 49.64 50.81 51.39 51.07 51.07 51.07 51.20 51.25 51.20 51.16 51.16 51.30 51.03 50.85 50.67 50.59 50.18 49.91 49.59 49.32 49.01 48.96 48.96 49.00 48.60 47.97 47.29 46.74 46.56 46.65 46.93 47.24 47.24 47.29 47.24 47.06 46.52
50.50 50.36 50.47 50.61 50.50 50.68 50.86 50.77 50.77 50.65 50.39 50.10 49.62 49.62 49.98 50.37 49.75 49.17 48.64 48.28 48.19 47.78 47.42 47.02 46.84 46.84 46.93 46.93 47.06 47.38 48.01 49.19 50.49 51.17 51.26 51.03 50.66 50.52 50.52 50.65 50.70 50.71 50.67 50.58 50.35 50.22 50.18 50.13 49.77 49.50 49.37 49.23 48.91 48.64 48.41 48.23 47.78 47.24 46.79 46.61 46.52 46.38 46.38 46.56 46.74 46.70 46.61 46.38 45.80
49.89 49.83 49.93 50.03 49.91 50.34 50.58 50.24 50.12 49.95 49.70 49.26 48.81 48.81 49.04 49.17 48.59 48.05 47.69 47.47 47.15 46.70 46.30 46.12 46.34 46.75 46.97 46.93 47.11 47.87 49.14 50.76 51.25 51.20 50.93 50.70 50.30 49.98 49.84 49.80 49.84 49.80 49.76 49.68 49.54 49.59 49.77 49.72 49.32 49.00 48.82 48.69 48.41 48.10 47.78 47.47 47.15 46.70 46.38 46.20 46.16 45.93 45.75 45.66 45.93 45.98 45.93 45.71 45.35
49.09 49.06 49.07 49.29 49.51 49.72 49.85 49.51 49.25 48.99 48.68 48.36 48.10 47.96 47.78 47.56 47.20 47.20 47.06 46.61 46.08 45.67 45.35 45.35 45.71 46.03 46.57 47.33 47.92 49.00 49.99 50.62 50.70 50.48 50.16 49.84 49.57 49.20 48.89 48.70 48.70 48.62 48.45 48.19 48.50 48.95 49.26 49.03 48.59 48.14 47.87 47.78 47.74 47.47 47.15 46.88 46.52 46.21 45.76 45.34 45.44 45.26 45.03 44.94 45.03 45.21 45.34 45.30 45.07
48.26 48.22 48.18 48.40 48.62 48.76 48.72 48.59 48.32 48.01 47.87 47.65 47.51 47.29 46.97 46.43 46.48 46.44 46.17 45.49 45.22 45.13 45.04 45.09 45.31 45.67 46.48 48.41 48.94 49.17 49.34 49.74 49.60 49.20 48.63 48.18 48.13 47.95 47.94 48.15 48.16 48.04 47.73 47.42 47.38 47.91 48.36 48.00 47.60 47.33 47.06 46.84 46.79 46.75 46.61 46.44 46.12 45.67 45.17 44.71 44.72 44.44 44.26 44.26 44.53 44.76 44.89 44.89 44.80
47.78 47.69 47.60 47.64 47.78 47.96 47.92 47.56 47.51 47.33 46.97 46.66 46.34 46.12 45.85 45.53 45.76 45.63 45.27 44.91 44.73 44.95 45.18 45.18 45.54 46.30 47.29 48.48 48.70 48.95 49.20 49.27 49.10 48.76 48.24 47.85 47.58 47.54 47.58 47.76 47.63 47.46 47.24 47.06 46.79 46.84 46.93 46.84 46.44 46.26 46.12 45.90 45.67 45.63 45.63 45.67 45.49 45.17 44.81 44.45 44.13 43.86 43.72 43.81 44.08 44.21 44.22 44.17 44.21
47.24 47.15 47.06 47.11 47.15 47.33 47.33 46.79 47.11 46.88 46.39 45.94 45.35 45.17 45.22 45.35 45.45 45.22 44.91 44.60 44.87 45.45 45.76 45.54 46.21 47.15 48.10 48.35 48.35 48.52 48.60 48.48 48.44 48.27 48.10 47.70 47.49 47.36 47.32 47.19 46.84 46.62 46.39 46.30 46.21 46.17 45.99 45.81 45.45 45.27 45.18 44.95 44.46 44.32 44.45 44.72 44.72 44.59 44.41 44.09 43.77 43.63 43.50 43.49 43.45 43.45 43.45 43.45 43.49
46.62 46.44 46.39 46.44 46.53 46.66 46.75 46.48 46.88 46.52 45.98 45.67 44.59 44.45 44.77 44.99 45.08 45.00 45.00 45.05 45.72 45.99 46.04 46.13 46.26 46.83 47.38 47.67 47.17 46.95 46.82 46.65 46.75 47.10 47.27 46.92 46.57 46.44 46.26 46.08 45.59 45.23 45.05 45.32 45.50 45.50 45.41 45.18 45.00 44.82 44.59 44.32 43.91 43.68 43.63 43.59 43.59 43.68 43.73 43.50 43.50 43.41 43.32 43.00 43.09 43.04 43.04 43.18 43.22
45.86 45.77 45.72 45.94 46.12 46.12 46.03 46.07 46.34 46.07 45.62 44.90 44.00 44.00 44.41 44.64 44.91 45.13 45.45 45.63 45.72 45.45 45.46 45.86 46.00 46.39 46.68 46.93 45.95 45.17 44.51 44.15 44.32 44.67 44.99 44.89 44.71 44.39 44.15 43.97 43.78 43.42 43.10 42.83 43.06 43.11 43.29 44.10 43.96 43.82 43.77 43.64 43.41 43.09 42.73 42.37 42.41 42.64 42.82 42.91 43.04 42.91 42.73 42.82 43.00 43.00 42.95 43.05 43.00
45.10 45.01 45.27 45.58 45.72 45.58 45.40 45.26 45.44 45.22 44.86 44.41 43.96 43.74 43.83 44.19 44.59 44.95 45.27 45.41 45.09 44.92 45.05 45.33 46.04 46.17 45.99 45.59 44.52 43.69 42.97 42.50 42.22 41.90 41.63 41.90 42.02 41.87 41.63 41.39 41.70 41.52 41.02 40.06 39.88 39.88 40.42 41.69 42.10 42.46 42.91 43.23 43.00 42.73 42.41 42.09 42.09 42.14 42.23 42.36 42.50 42.36 42.18 42.14 42.37 42.37 42.46 42.64 42.50
44.38 44.60 44.91 45.27 45.27 45.18 45.09 45.08 44.95 44.68 44.41 44.01 43.92 43.60 43.47 43.60 43.74 43.92 44.24 44.65 44.65 44.38 44.07 44.38 45.07 44.95 44.39 43.79 43.20 43.06 42.80 42.09 41.40 40.94 40.73 40.82 40.61 40.30 39.87 39.41 39.13 38.85 38.53 38.20 38.11 38.24 38.61 39.24 40.06 41.01 41.92 42.56 42.55 42.50 42.32 42.14 41.87 41.82 41.87 41.87 41.87 41.87 41.69 41.46 41.60 41.64 41.73 41.92 41.69
44.11 44.46 44.87 45.05 44.95 44.86 44.82 44.82 44.55 44.19 43.92 43.96 43.33 43.02 42.88 42.93 42.89 42.89 43.08 43.48 43.53 43.25 42.90 42.95 43.19 43.18 42.94 42.77 42.54 42.81 43.04 42.75 41.44 40.88 40.55 40.18 39.60 39.08 38.57 37.93 37.33 36.87 36.68 36.80 36.98 37.16 37.48 38.06 38.97 40.11 41.20 41.79 41.97 41.96 41.87 41.83 41.46 41.28 41.19 41.05 41.14 41.01 41.05 41.05 41.15 41.19 41.24 41.24 41.10
43.79 44.20 44.55 44.73 44.60 44.51 44.37 44.10 43.88 43.47 43.20 43.11 42.48 42.16 41.99 42.04 41.91 41.91 42.00 42.22 42.13 42.22 42.27 41.96 41.88 41.73 41.70 41.72 41.63 41.83 41.97 41.79 40.42 39.76 39.19 38.58 38.21 37.80 37.30 36.79 36.15 35.92 35.87 36.23 36.54 36.81 37.26 38.07 39.34 40.61 41.48 41.85 41.66 41.52 41.30 41.11 40.84 40.70 40.52 40.47 40.34 40.24 40.24 40.74 40.83 40.92 40.97 40.97 40.83
43.57 43.75 43.97 44.15 44.15 43.97 43.75 43.39 43.16 42.93 42.62 42.30 41.76 41.36 41.09 41.00 40.92 41.10 41.42 41.69 42.00 42.10 42.06 41.79 41.16 40.81 40.45 40.18 40.06 40.07 39.80 39.31 39.00 38.67 38.25 37.51 37.47 37.38 37.06 36.20 35.43 35.25 35.47 35.83 36.55 37.50 38.59 39.72 40.67 41.31 41.58 41.63 41.41 41.23 41.00 40.68 40.35 40.12 39.98 39.93 39.65 39.56 39.79 40.52 40.56 40.56 40.51 40.38 40.00
43.35 43.39 43.34 43.30 43.39 43.52 43.34 42.76 42.53 42.31 42.08 41.71 41.22 40.86 40.42 39.92 39.83 40.11 40.65 41.46 42.23 42.24 41.98 41.44 40.67 40.13 39.63 38.94 38.40 38.00 37.94 37.92 38.45 38.35 37.83 37.01 36.64 36.42 36.19 35.69 35.75 37.08 38.22 37.69 38.82 39.55 40.09 40.78 41.28 41.33 41.27 41.23 40.96 40.78 40.61 40.38 40.01 39.67 39.48 39.47 39.38 39.47 39.79 40.20 40.11 39.98 39.61 38.89 38.57
42.90 42.99 43.12 43.52 42.58 42.36 42.31 41.95 41.95 41.68 41.32 41.04 40.59 40.14 39.69 39.10 39.06 39.11 39.38 40.02 40.84 41.20 41.26 40.93 40.62 40.06 39.40 38.74 38.16 37.71 37.52 37.38 37.51 37.83 38.00 37.73 37.91 38.09 38.23 38.37 38.69 39.38 39.84 39.84 40.39 40.75 40.98 41.10 40.96 40.92 40.97 40.89 40.57 40.25 40.02 39.84 39.60 39.40 39.22 39.26 39.30 39.48 39.70 39.70 39.35 38.92 38.47 38.15 38.24
42.59 42.72 42.72 42.49 41.83 41.51 41.42 41.42 41.41 41.09 40.64 40.23 39.74 39.33 38.88 38.56 38.47 38.47 38.56 38.66 39.30 40.38 41.42 41.51 41.06 40.49 39.90 39.64 39.32 39.09 38.86 38.50 38.43 38.73 39.13 39.26 39.64 39.78 39.82 39.91 39.87 39.92 40.33 41.07 42.32 42.82 42.81 42.34 41.47 41.02 40.67 40.64 40.28 39.97 39.78 39.64 39.34 39.21 39.16 39.21 39.47 39.59 39.58 39.14 38.53 38.09 37.84 37.71 37.80
42.41 42.32 42.10 41.65 41.34 41.02 40.79 40.74 40.69 40.28 39.87 39.29 38.88 38.56 38.20 38.11 37.93 37.84 37.88 38.15 38.79 39.99 41.09 41.48 41.26 41.24 41.17 40.88 40.80 40.68 40.44 40.25 40.19 40.14 40.05 39.91 39.96 39.97 39.85 39.81 39.68 39.80 40.38 41.95 43.14 43.67 43.84 43.74 43.16 42.08 41.01 40.16 39.94 39.76 39.61 39.47 39.42 39.42 39.42 39.50 39.53 39.29 38.78 38.02 37.46 37.20 37.18 37.02 36.70
42.19 41.87 41.56 41.34 40.94 40.53 40.25 40.07 40.02 39.65 39.25 38.80 38.30 37.94 37.66 37.39 37.34 37.42 37.47 37.65 37.97 38.13 38.71 39.89 40.66 41.27 41.43 40.65 40.62 40.60 40.49 40.29 39.80 39.81 40.04 39.97 39.84 39.72 39.56 39.37 39.37 39.67 40.50 42.32 43.40 43.89 44.11 44.33 44.01 43.12 41.65 39.89 39.65 39.52 39.43 39.29 39.39 39.28 39.05 38.85 38.25 37.60 36.92 36.48 36.52 36.52 36.41 35.87 35.37
41.79 41.43 41.16 40.89 40.44 39.98 39.57 39.43 39.39 39.21 38.84 38.49 37.85 37.53 37.30 36.94 36.89 36.93 36.97 37.14 37.42 37.52 37.57 37.83 39.10 39.69 39.74 39.17 39.44 39.66 39.83 40.11 39.83 39.88 40.12 40.09 39.94 39.52 39.21 38.84 38.82 39.59 41.01 42.73 43.49 44.02 44.25 44.42 44.33 43.62 42.37 40.44 39.29 39.11 39.28 39.14 38.90 38.20 37.46 37.06 36.41 35.88 35.70 35.93 36.33 36.28 35.87 34.96 34.12
41.43 41.11 40.80 40.53 39.89 39.30 38.94 38.94 38.94 38.76 38.49 38.04 37.63 37.45 37.17 36.67 36.44 36.33 36.55 37.00 37.38 37.28 37.14 37.17 38.39 38.57 38.48 38.76 38.89 39.34 39.79 39.79 39.88 39.83 39.75 39.96 39.72 39.28 38.71 38.37 38.25 39.35 41.19 42.96 43.49 43.89 44.07 44.38 44.29 43.85 42.92 41.59 39.67 38.73 38.29 37.99 37.59 37.06 36.52 36.14 36.06 35.93 35.93 36.06 36.06 35.58 34.86 33.85 33.37
41.02 40.89 40.53 39.98 39.35 38.85 38.49 38.44 38.44 38.35 38.26 38.21 37.76 37.27 36.85 36.49 36.07 35.93 36.23 37.00 37.50 37.50 37.31 37.39 37.80 37.75 37.66 38.02 37.66 37.70 38.11 38.66 39.39 39.57 39.45 39.38 39.16 38.90 38.77 38.71 38.68 39.70 41.21 42.88 43.45 43.81 44.11 44.33 44.12 43.72 43.02 42.17 39.25 37.26 36.28 36.55 36.33 36.35 36.33 36.11 36.15 36.13 35.95 35.79 35.05 34.44 33.92 33.55 33.29
40.53 40.35 39.98 39.31 38.76 38.27 37.90 37.63 37.67 37.72 37.90 38.12 37.45 37.08 36.76 36.04 35.71 35.51 35.60 36.22 37.13 38.22 38.76 38.08 37.31 36.98 36.84 36.80 36.80 36.89 37.30 38.21 39.08 39.27 39.29 39.17 39.36 39.16 38.78 38.74 38.93 39.77 41.19 42.87 43.54 43.93 44.11 44.20 43.86 43.43 42.81 41.96 39.17 36.94 35.74 36.11 36.08 36.16 36.31 36.24 35.98 35.65 35.28 34.89 34.08 33.55 33.22 33.03 32.89
40.03 39.76 39.36 38.82 38.18 37.59 37.22 37.04 37.04 37.08 37.13 36.95 36.77 36.58 36.13 35.44 35.01 34.77 35.07 35.93 37.43 38.76 39.35 38.49 37.40 36.89 36.75 36.62 36.71 37.16 37.81 38.53 38.67 38.95 39.11 39.11 39.19 38.95 38.72 38.77 38.83 39.67 41.09 42.86 43.62 43.98 44.11 43.98 43.60 42.99 42.24 41.30 38.86 36.29 35.04 35.90 35.86 35.71 35.50 35.00 34.71 34.53 34.30 34.06 33.17 32.53 32.20 32.04 31.94
39.67 39.41 38.87 38.33 37.55 36.88 36.45 36.31 36.22 36.31 36.32 36.32 36.13 35.77 35.35 34.75 34.32 34.39 34.92 35.97 37.52 38.52 38.85 38.16 37.20 36.61 36.24 35.83 36.02 36.62 37.30 37.81 38.45 39.09 39.47 39.55 39.22 38.90 38.67 38.77 38.82 39.80 41.32 42.90 43.75 44.06 44.11 43.80 43.20 42.50 41.70 40.70 37.64 35.39 34.34 34.65 34.32 34.14 33.70 32.85 32.63 32.51 32.42 32.30 31.84 31.32 30.76 30.20 30.26
39.50 39.14 38.55 37.92 37.20 36.47 35.86 35.50 35.45 35.55 35.68 35.55 35.36 35.17 34.89 34.47 34.35 34.65 35.37 36.83 38.42 38.98 38.76 37.98 37.07 36.35 35.89 35.44 35.48 35.80 36.62 37.89 38.67 39.17 39.49 39.63 39.26 38.89 38.53 38.52 38.89 40.08 41.69 43.20 43.88 44.10 43.93 43.44 42.70 41.92 40.99 39.68 36.38 34.37 33.37 32.84 32.23 31.68 31.28 30.84 30.45 30.05 29.87 29.74 29.62 29.46 29.32 28.94 29.01
39.72 39.27 38.64 38.01 37.41 36.55 35.73 35.08 35.04 35.18 35.41 35.36 35.07 34.88 34.83 34.65 34.52 34.69 35.60 37.65 39.57 39.88 39.21 38.44 37.58 36.85 36.30 35.94 36.03 36.35 37.12 38.34 38.93 39.39 39.66 39.75 39.16 38.76 38.48 38.34 38.94 40.34 42.00 43.47 43.87 43.87 43.48 42.86 42.04 41.21 39.98 37.97 34.82 33.26 32.43 31.67 30.84 29.88 29.22 29.15 28.84 28.50 28.23 28.13 28.20 28.42 28.70 28.94 29.12
40.57 39.80 39.13 38.90 38.40 37.63 36.49 35.21 34.94 35.09 35.31 35.39 34.96 34.87 34.73 34.68 34.25 34.46 35.65 38.38 39.48 39.48 39.11 38.98 38.48 37.61 36.75 36.16 36.75 37.58 38.26 38.52 39.10 39.42 39.61 39.61 38.85 38.25 37.89 37.84 38.52 40.24 42.11 43.60 43.65 43.30 42.73 42.08 41.30 40.22 38.47 35.75 33.39 32.35 31.85 31.07 30.07 29.15 28.46 28.39 28.14 27.89 27.82 27.93 28.14 28.28 28.30 28.40 28.89
41.60 41.06 40.47 40.02 39.61 39.16 38.35 36.94 35.58 35.12 34.99 35.06 34.65 34.41 34.13 34.08 33.74 34.01 35.33 37.88 38.61 38.65 38.65 38.70 38.52 38.20 37.75 37.25 37.29 37.89 38.52 38.61 38.61 38.79 39.01 39.34 38.39 37.67 37.29 37.29 37.61 39.49 41.83 43.37 43.07 42.59 41.94 41.34 40.53 39.10 36.86 33.62 31.93 31.44 31.24 30.57 29.73 28.90 28.26 27.84 27.59 27.53 27.68 27.97 28.35 28.38 28.34 28.35 29.16
43.17 42.77 42.32 41.55 40.92 40.51 39.88 38.94 37.08 35.85 35.29 35.10 34.28 33.63 33.30 33.47 33.38 34.19 35.70 37.89 37.84 37.93 38.10 38.19 37.88 37.52 37.07 36.57 36.66 36.84 37.20 37.97 38.03 37.79 37.66 38.16 37.85 37.49 37.08 37.02 37.10 38.85 41.00 42.71 42.37 41.94 41.34 40.75 39.85 38.25 35.72 32.33 30.93 30.60 30.61 30.20 29.18 28.59 28.27 28.09 27.81 27.76 27.92 28.12 28.52 28.90 29.38 30.27 32.13
43.70 43.44 42.85 42.08 41.45 41.00 40.51 39.83 38.52 37.30 36.25 35.47 34.05 33.23 32.89 33.11 33.42 34.47 35.89 37.22 37.18 37.53 37.70 37.29 36.57 35.75 35.39 35.53 35.66 35.56 35.74 36.62 37.12 36.85 36.57 36.62 37.54 37.87 37.55 36.75 36.79 38.26 40.24 41.91 41.76 41.42 40.91 40.37 39.43 37.99 35.82 32.65 30.39 29.77 29.81 29.42 28.62 28.10 27.85 27.67 27.43 27.40 27.57 27.66 27.81 28.25 29.21 31.09 34.74
43.79 43.34 42.80 42.04 41.58 41.18 40.77 40.28 39.42 38.02 36.53 35.25 33.74 32.91 32.71 33.16 34.34 35.30 36.30 37.18 37.40 37.36 36.81 35.67 34.62 34.48 34.94 35.94 35.08 34.58 34.53 34.76 34.90 35.35 35.85 36.25 37.59 38.47 38.25 36.45 36.30 37.58 39.43 41.03 41.19 40.95 40.53 40.00 39.16 37.95 35.84 32.09 29.20 28.50 28.83 28.70 28.37 27.72 27.09 26.80 26.79 26.87 27.04 26.98 26.68 26.77 27.19 28.39 32.98
43.65 42.98 42.26 41.40 40.86 40.45 40.18 39.78 38.88 37.56 36.12 34.98 33.70 33.19 33.41 34.45 35.40 35.67 35.94 37.08 36.95 36.68 36.03 34.58 33.80 34.12 35.03 35.82 34.82 34.17 33.99 34.13 34.17 34.54 35.21 36.49 37.46 38.16 37.93 36.05 35.81 36.36 37.66 39.45 40.44 40.61 40.21 39.72 38.99 37.94 35.60 31.30 27.93 27.26 27.87 28.31 28.13 27.23 26.23 25.78 25.89 26.14 26.33 26.30 26.04 25.78 25.70 25.54 27.68
MSLP
1015.11 1015.07 1015.03 1014.99 1015.15 1015.27 1015.27 1015.27 1015.31 1015.35 1015.39 1015.51 1015.63 1015.75 1015.87 1015.95 1016.07 1016.23 1016.39 1016.51 1016.63 1016.79 1016.95 1017.07 1017.19 1017.35 1017.43 1017.43 1017.47 1017.51 1017.63 1017.71 1017.79 1017.91 1017.99 1018.07 1018.19 1018.23 1018.23 1018.23 1018.27 1018.35 1018.43 1018.51 1018.51 1018.59 1018.63 1018.67 1018.71 1018.79 1018.79 1018.87 1018.87 1018.91 1018.87 1018.79 1018.79 1018.79 1018.79 1018.75 1018.79 1018.79 1018.87 1018.95 1019.07 1019.11 1019.19 1019.31 1019.35
1014.91 1014.91 1014.91 1014.91 1014.95 1015.07 1015.15 1015.23 1015.35 1015.47 1015.51 1015.55 1015.63 1015.75 1015.87 1015.95 1016.15 1016.35 1016.47 1016.59 1016.71 1016.83 1016.99 1017.19 1017.31 1017.39 1017.47 1017.55 1017.59 1017.63 1017.75 1017.83 1017.91 1017.99 1018.07 1018.23 1018.27 1018.31 1018.31 1018.35 1018.43 1018.51 1018.55 1018.63 1018.67 1018.71 1018.75 1018.79 1018.83 1018.87 1018.87 1018.91 1018.91 1018.91 1018.91 1018.91 1018.87 1018.87 1018.91 1018.95 1018.95 1018.95 1018.95 1018.99 1019.07 1019.11 1019.15 1019.19 1019.27
1014.71 1014.75 1014.79 1014.91 1014.95 1015.07 1015.19 1015.35 1015.51 1015.55 1015.63 1015.67 1015.75 1015.83 1015.91 1016.07 1016.23 1016.39 1016.59 1016.75 1016.83 1016.91 1017.07 1017.23 1017.35 1017.47 1017.55 1017.63 1017.71 1017.79 1017.87 1017.95 1018.03 1018.15 1018.23 1018.35 1018.39 1018.43 1018.47 1018.51 1018.59 1018.63 1018.63 1018.63 1018.71 1018.75 1018.79 1018.83 1018.83 1018.87 1018.91 1018.91 1018.95 1018.99 1019.03 1018.99 1018.95 1018.99 1019.07 1019.11 1019.07 1019.07 1019.07 1019.11 1019.15 1019.15 1019.19 1019.19 1019.27
1014.67 1014.75 1014.83 1014.91 1015.03 1015.11 1015.27 1015.43 1015.55 1015.63 1015.67 1015.79 1015.87 1015.91 1016.07 1016.19 1016.35 1016.51 1016.67 1016.87 1016.95 1017.07 1017.19 1017.31 1017.43 1017.55 1017.63 1017.71 1017.83 1017.91 1018.03 1018.07 1018.15 1018.27 1018.39 1018.51 1018.51 1018.55 1018.63 1018.63 1018.67 1018.71 1018.75 1018.75 1018.75 1018.79 1018.79 1018.83 1018.83 1018.87 1018.91 1018.99 1018.99 1019.07 1019.07 1019.07 1019.07 1019.15 1019.23 1019.23 1019.23 1019.23 1019.19 1019.19 1019.19 1019.19 1019.19 1019.27 1019.35
1014.75 1014.79 1014.87 1014.99 1015.07 1015.15 1015.27 1015.39 1015.51 1015.63 1015.75 1015.83 1015.91 1016.07 1016.27 1016.35 1016.51 1016.63 1016.79 1016.95 1017.15 1017.27 1017.35 1017.39 1017.51 1017.63 1017.75 1017.79 1017.91 1018.07 1018.15 1018.23 1018.35 1018.39 1018.51 1018.59 1018.63 1018.63 1018.67 1018.71 1018.71 1018.75 1018.79 1018.79 1018.79 1018.83 1018.83 1018.87 1018.91 1018.95 1018.99 1019.03 1019.03 1019.07 1019.07 1019.07 1019.07 1019.19 1019.31 1019.35 1019.35 1019.35 1019.35 1019.35 1019.35 1019.31 1019.35 1019.39 1019.51
1014.87 1014.91 1014.99 1015.07 1015.15 1015.23 1015.35 1015.47 1015.59 1015.71 1015.83 1015.91 1016.07 1016.27 1016.43 1016.59 1016.67 1016.79 1017.03 1017.19 1017.35 1017.43 1017.47 1017.55 1017.63 1017.71 1017.83 1017.95 1018.07 1018.15 1018.23 1018.35 1018.43 1018.51 1018.55 1018.63 1018.63 1018.67 1018.71 1018.71 1018.75 1018.79 1018.79 1018.87 1018.87 1018.91 1018.91 1018.91 1018.95 1018.99 1019.03 1019.07 1019.07 1019.07 1019.07 1019.07 1019.11 1019.19 1019.35 1019.47 1019.51 1019.51 1019.51 1019.51 1019.51 1019.51 1019.51 1019.55 1019.63
1014.91 1015.03 1015.11 1015.19 1015.23 1015.35 1015.47 1015.59 1015.71 1015.79 1015.91 1016.07 1016.23 1016.43 1016.59 1016.75 1016.91 1017.11 1017.27 1017.39 1017.47 1017.51 1017.55 1017.63 1017.75 1017.83 1017.95 1018.07 1018.15 1018.23 1018.35 1018.47 1018.51 1018.55 1018.59 1018.63 1018.67 1018.75 1018.79 1018.79 1018.83 1018.87 1018.91 1018.95 1018.99 1018.99 1018.99 1018.99 1019.07 1019.07 1019.07 1019.11 1019.11 1019.11 1019.11 1019.11 1019.15 1019.23 1019.39 1019.55 1019.63 1019.63 1019.63 1019.63 1019.63 1019.63 1019.63 1019.71 1019.83
1014.95 1015.07 1015.19 1015.23 1015.35 1015.43 1015.55 1015.67 1015.79 1015.91 1016.07 1016.23 1016.43 1016.59 1016.71 1016.87 1017.07 1017.27 1017.43 1017.51 1017.55 1017.59 1017.67 1017.75 1017.87 1017.95 1018.07 1018.15 1018.23 1018.35 1018.43 1018.51 1018.59 1018.63 1018.63 1018.67 1018.75 1018.79 1018.83 1018.91 1018.91 1018.95 1018.99 1019.03 1019.07 1019.07 1019.07 1019.11 1019.15 1019.19 1019.19 1019.19 1019.19 1019.19 1019.19 1019.19 1019.19 1019.31 1019.43 1019.59 1019.63 1019.67 1019.67 1019.67 1019.71 1019.71 1019.79 1019.83 1019.91
1015.11 1015.19 1015.27 1015.35 1015.43 1015.55 1015.67 1015.79 1015.91 1016.03 1016.23 1016.43 1016.63 1016.75 1016.83 1016.95 1017.15 1017.31 1017.43 1017.55 1017.59 1017.63 1017.75 1017.87 1017.95 1018.07 1018.15 1018.23 1018.35 1018.43 1018.51 1018.59 1018.63 1018.67 1018.75 1018.79 1018.83 1018.91 1018.91 1018.95 1018.99 1019.03 1019.07 1019.07 1019.11 1019.11 1019.15 1019.19 1019.27 1019.31 1019.31 1019.31 1019.35 1019.35 1019.31 1019.31 1019.35 1019.43 1019.51 1019.63 1019.71 1019.75 1019.75 1019.79 1019.79 1019.83 1019.87 1019.91 1019.99
1015.19 1015.35 1015.39 1015.51 1015.63 1015.67 1015.79 1015.91 1016.03 1016.15 1016.35 1016.55 1016.79 1016.91 1016.95 1017.03 1017.15 1017.35 1017.47 1017.59 1017.63 1017.75 1017.87 1017.99 1018.07 1018.15 1018.23 1018.35 1018.43 1018.51 1018.59 1018.63 1018.67 1018.79 1018.83 1018.87 1018.91 1018.95 1018.99 1019.03 1019.07 1019.07 1019.11 1019.15 1019.19 1019.19 1019.19 1019.23 1019.35 1019.39 1019.39 1019.39 1019.43 1019.43 1019.43 1019.43 1019.51 1019.55 1019.63 1019.71 1019.75 1019.79 1019.79 1019.83 1019.91 1019.91 1019.95 1020.03 1020.07
1015.27 1015.35 1015.51 1015.63 1015.75 1015.83 1015.91 1016.11 1016.23 1016.35 1016.51 1016.75 1016.91 1017.03 1017.15 1017.19 1017.31 1017.47 1017.59 1017.63 1017.75 1017.91 1018.03 1018.07 1018.15 1018.23 1018.31 1018.43 1018.51 1018.55 1018.63 1018.67 1018.75 1018.79 1018.87 1018.91 1018.99 1019.03 1019.03 1019.07 1019.07 1019.15 1019.19 1019.19 1019.23 1019.23 1019.23 1019.31 1019.35 1019.43 1019.51 1019.51 1019.51 1019.51 1019.55 1019.59 1019.63 1019.67 1019.75 1019.79 1019.79 1019.79 1019.83 1019.91 1019.95 1019.95 1020.03 1020.11 1020.19
1015.39 1015.51 1015.63 1015.79 1015.87 1015.95 1016.07 1016.27 1016.47 1016.63 1016.79 1016.91 1017.03 1017.19 1017.31 1017.39 1017.51 1017.59 1017.67 1017.79 1017.91 1018.07 1018.15 1018.19 1018.23 1018.31 1018.39 1018.51 1018.55 1018.63 1018.63 1018.71 1018.79 1018.87 1018.91 1018.95 1019.07 1019.07 1019.07 1019.11 1019.19 1019.19 1019.27 1019.31 1019.35 1019.35 1019.31 1019.35 1019.39 1019.51 1019.59 1019.63 1019.63 1019.63 1019.63 1019.67 1019.71 1019.79 1019.87 1019.91 1019.91 1019.87 1019.91 1019.95 1020.03 1020.07 1020.07 1020.07 1020.23
1015.51 1015.63 1015.79 1015.91 1015.99 1016.11 1016.27 1016.51 1016.67 1016.79 1016.91 1017.07 1017.19 1017.35 1017.43 1017.55 1017.63 1017.67 1017.79 1017.91 1018.07 1018.15 1018.23 1018.27 1018.35 1018.39 1018.47 1018.51 1018.59 1018.63 1018.67 1018.79 1018.83 1018.91 1018.99 1019.07 1019.11 1019.15 1019.15 1019.19 1019.23 1019.27 1019.35 1019.39 1019.43 1019.39 1019.39 1019.47 1019.51 1019.55 1019.63 1019.67 1019.71 1019.75 1019.75 1019.79 1019.79 1019.87 1019.91 1019.99 1019.95 1019.91 1019.95 1020.07 1020.07 1020.07 1020.07 1020.11 1020.23
1015.59 1015.75 1015.91 1016.03 1016.15 1016.27 1016.47 1016.63 1016.83 1016.95 1017.07 1017.19 1017.35 1017.47 1017.55 1017.67 1017.75 1017.79 1017.91 1018.03 1018.11 1018.23 1018.27 1018.35 1018.39 1018.43 1018.47 1018.51 1018.59 1018.63 1018.67 1018.79 1018.87 1018.95 1019.03 1019.07 1019.19 1019.19 1019.23 1019.31 1019.35 1019.39 1019.43 1019.47 1019.51 1019.51 1019.51 1019.55 1019.63 1019.67 1019.71 1019.79 1019.79 1019.83 1019.83 1019.83 1019.87 1019.91 1019.95 1019.99 1019.99 1020.03 1020.07 1020.07 1020.11 1020.15 1020.19 1020.23 1020.23
1015.75 1015.91 1016.03 1016.15 1016.27 1016.43 1016.59 1016.79 1016.91 1017.07 1017.19 1017.35 1017.47 1017.55 1017.63 1017.79 1017.87 1017.91 1017.99 1018.07 1018.15 1018.23 1018.31 1018.39 1018.43 1018.47 1018.47 1018.51 1018.59 1018.63 1018.71 1018.79 1018.91 1018.99 1019.07 1019.19 1019.23 1019.31 1019.35 1019.39 1019.47 1019.51 1019.55 1019.55 1019.59 1019.63 1019.63 1019.63 1019.71 1019.79 1019.79 1019.83 1019.91 1019.91 1019.91 1019.91 1019.91 1019.95 1019.95 1019.99 1020.03 1020.07 1020.11 1020.15 1020.19 1020.23 1020.23 1020.23 1020.31
1015.91 1016.03 1016.15 1016.27 1016.39 1016.55 1016.71 1016.87 1017.03 1017.19 1017.31 1017.43 1017.55 1017.63 1017.71 1017.83 1017.91 1017.95 1018.03 1018.07 1018.19 1018.23 1018.31 1018.39 1018.47 1018.51 1018.51 1018.55 1018.63 1018.67 1018.79 1018.87 1018.95 1019.07 1019.19 1019.27 1019.35 1019.43 1019.51 1019.51 1019.55 1019.63 1019.63 1019.63 1019.63 1019.67 1019.71 1019.75 1019.79 1019.87 1019.91 1019.91 1019.95 1019.99 1019.99 1019.99 1020.03 1020.07 1020.07 1020.07 1020.11 1020.15 1020.19 1020.23 1020.23 1020.23 1020.23 1020.27 1020.35
1016.07 1016.15 1016.27 1016.39 1016.51 1016.63 1016.79 1016.95 1017.11 1017.23 1017.35 1017.51 1017.63 1017.67 1017.75 1017.87 1017.91 1017.99 1018.07 1018.11 1018.23 1018.31 1018.35 1018.39 1018.47 1018.51 1018.55 1018.59 1018.67 1018.79 1018.87 1018.99 1019.07 1019.15 1019.27 1019.35 1019.47 1019.55 1019.59 1019.63 1019.67 1019.71 1019.71 1019.75 1019.75 1019.79 1019.83 1019.83 1019.87 1019.91 1019.99 1020.03 1020.07 1020.07 1020.07 1020.07 1020.11 1020.15 1020.15 1020.19 1020.23 1020.23 1020.27 1020.27 1020.27 1020.27 1020.31 1020.31 1020.35
1016.23 1016.31 1016.39 1016.51 1016.63 1016.79 1016.91 1017.07 1017.19 1017.31 1017.43 1017.51 1017.63 1017.71 1017.79 1017.87 1017.91 1017.99 1018.07 1018.11 1018.23 1018.27 1018.35 1018.39 1018.43 1018.51 1018.63 1018.71 1018.79 1018.87 1018.99 1019.07 1019.19 1019.31 1019.39 1019.47 1019.55 1019.59 1019.63 1019.71 1019.75 1019.79 1019.79 1019.83 1019.87 1019.91 1019.91 1019.91 1019.95 1020.03 1020.07 1020.07 1020.11 1020.15 1020.15 1020.19 1020.19 1020.23 1020.23 1020.27 1020.27 1020.31 1020.35 1020.35 1020.35 1020.35 1020.35 1020.39 1020.43
1016.31 1016.43 1016.51 1016.63 1016.75 1016.87 1016.99 1017.11 1017.23 1017.35 1017.47 1017.55 1017.63 1017.71 1017.79 1017.87 1017.91 1018.03 1018.11 1018.19 1018.23 1018.27 1018.35 1018.47 1018.51 1018.59 1018.71 1018.83 1018.91 1018.99 1019.07 1019.19 1019.31 1019.39 1019.47 1019.51 1019.59 1019.63 1019.67 1019.75 1019.79 1019.83 1019.87 1019.91 1019.95 1019.95 1019.95 1019.99 1020.03 1020.07 1020.07 1020.15 1020.19 1020.23 1020.23 1020.23 1020.27 1020.31 1020.31 1020.35 1020.35 1020.35 1020.39 1020.39 1020.43 1020.43 1020.43 1020.47 1020.51
1016.35 1016.47 1016.59 1016.67 1016.79 1016.91 1017.07 1017.15 1017.23 1017.35 1017.47 1017.55 1017.63 1017.75 1017.79 1017.91 1017.99 1018.07 1018.15 1018.23 1018.23 1018.31 1018.39 1018.51 1018.63 1018.71 1018.79 1018.91 1019.03 1019.07 1019.15 1019.23 1019.35 1019.47 1019.55 1019.59 1019.63 1019.67 1019.75 1019.79 1019.87 1019.91 1019.95 1019.99 1020.03 1020.03 1020.03 1020.07 1020.07 1020.07 1020.15 1020.19 1020.23 1020.27 1020.31 1020.35 1020.35 1020.39 1020.43 1020.43 1020.43 1020.47 1020.47 1020.47 1020.47 1020.47 1020.51 1020.51 1020.59
1016.39 1016.51 1016.59 1016.71 1016.79 1016.91 1017.07 1017.19 1017.27 1017.35 1017.47 1017.55 1017.67 1017.79 1017.83 1017.91 1017.99 1018.07 1018.11 1018.23 1018.27 1018.35 1018.47 1018.55 1018.71 1018.83 1018.95 1019.07 1019.15 1019.19 1019.31 1019.35 1019.51 1019.59 1019.63 1019.71 1019.79 1019.79 1019.83 1019.87 1019.91 1019.99 1020.03 1020.07 1020.07 1020.07 1020.07 1020.07 1020.11 1020.15 1020.19 1020.23 1020.27 1020.31 1020.35 1020.39 1020.47 1020.51 1020.51 1020.51 1020.51 1020.51 1020.51 1020.51 1020.51 1020.55 1020.59 1020.63 1020.63
1016.47 1016.55 1016.63 1016.75 1016.87 1016.95 1017.07 1017.19 1017.27 1017.39 1017.51 1017.63 1017.71 1017.79 1017.87 1017.95 1018.03 1018.07 1018.15 1018.19 1018.31 1018.39 1018.51 1018.67 1018.79 1018.91 1019.03 1019.15 1019.27 1019.35 1019.47 1019.55 1019.63 1019.71 1019.75 1019.83 1019.87 1019.91 1019.91 1019.95 1020.03 1020.07 1020.07 1020.11 1020.11 1020.11 1020.15 1020.15 1020.15 1020.19 1020.23 1020.23 1020.31 1020.35 1020.35 1020.43 1020.51 1020.51 1020.55 1020.59 1020.63 1020.63 1020.63 1020.63 1020.63 1020.63 1020.67 1020.71 1020.71
1016.47 1016.59 1016.71 1016.79 1016.91 1016.99 1017.07 1017.19 1017.35 1017.47 1017.55 1017.67 1017.79 1017.87 1017.95 1018.03 1018.11 1018.19 1018.23 1018.27 1018.35 1018.51 1018.63 1018.75 1018.87 1018.95 1019.07 1019.19 1019.35 1019.47 1019.55 1019.63 1019.75 1019.79 1019.83 1019.91 1019.95 1019.99 1020.03 1020.07 1020.07 1020.07 1020.11 1020.15 1020.15 1020.15 1020.19 1020.19 1020.23 1020.23 1020.23 1020.27 1020.35 1020.35 1020.39 1020.39 1020.51 1020.55 1020.63 1020.63 1020.71 1020.71 1020.71 1020.71 1020.71 1020.75 1020.79 1020.79 1020.79
1016.51 1016.63 1016.75 1016.83 1016.95 1017.07 1017.15 1017.27 1017.39 1017.51 1017.63 1017.75 1017.83 1017.91 1018.03 1018.11 1018.19 1018.27 1018.35 1018.39 1018.51 1018.63 1018.71 1018.83 1018.91 1019.07 1019.19 1019.31 1019.39 1019.51 1019.59 1019.71 1019.79 1019.91 1019.91 1019.91 1019.99 1020.03 1020.07 1020.07 1020.07 1020.11 1020.11 1020.11 1020.11 1020.15 1020.15 1020.19 1020.23 1020.23 1020.27 1020.27 1020.35 1020.39 1020.43 1020.47 1020.51 1020.59 1020.63 1020.67 1020.75 1020.79 1020.79 1020.79 1020.83 1020.83 1020.87 1020.91 1020.87
1016.51 1016.63 1016.79 1016.87 1016.99 1017.07 1017.19 1017.31 1017.43 1017.55 1017.71 1017.79 1017.91 1017.99 1018.07 1018.19 1018.23 1018.35 1018.47 1018.55 1018.63 1018.71 1018.79 1018.87 1018.99 1019.11 1019.27 1019.35 1019.47 1019.51 1019.59 1019.67 1019.79 1019.87 1019.91 1019.99 1020.03 1020.07 1020.07 1020.07 1020.07 1020.07 1020.11 1020.11 1020.07 1020.07 1020.07 1020.11 1020.15 1020.23 1020.23 1020.31 1020.35 1020.39 1020.47 1020.51 1020.51 1020.59 1020.63 1020.67 1020.75 1020.79 1020.83 1020.91 1020.95 1020.95 1020.99 1020.99 1020.99
1016.55 1016.67 1016.79 1016.91 1016.95 1017.07 1017.23 1017.35 1017.47 1017.59 1017.75 1017.83 1017.91 1018.07 1018.15 1018.23 1018.35 1018.43 1018.55 1018.63 1018.75 1018.79 1018.83 1018.91 1019.03 1019.15 1019.27 1019.39 1019.51 1019.55 1019.63 1019.67 1019.79 1019.83 1019.91 1020.03 1020.07 1020.07 1020.07 1020.07 1020.07 1020.07 1020.07 1020.07 1020.03 1020.03 1020.07 1020.07 1020.07 1020.15 1020.23 1020.31 1020.35 1020.39 1020.47 1020.55 1020.55 1020.59 1020.63 1020.71 1020.75 1020.79 1020.87 1020.95 1021.07 1021.07 1021.07 1021.11 1021.07
1016.59 1016.67 1016.79 1016.91 1016.99 1017.11 1017.27 1017.39 1017.51 1017.63 1017.79 1017.91 1017.99 1018.11 1018.23 1018.31 1018.39 1018.51 1018.63 1018.71 1018.79 1018.83 1018.91 1018.95 1019.07 1019.15 1019.27 1019.39 1019.51 1019.59 1019.63 1019.75 1019.79 1019.83 1019.87 1019.95 1019.99 1020.03 1020.07 1020.07 1020.07 1020.07 1020.03 1020.03 1019.99 1019.95 1019.95 1019.95 1019.99 1020.07 1020.19 1020.27 1020.35 1020.39 1020.43 1020.51 1020.59 1020.63 1020.71 1020.75 1020.83 1020.87 1020.91 1021.03 1021.11 1021.15 1021.19 1021.23 1021.23
1016.59 1016.71 1016.79 1016.91 1017.07 1017.19 1017.31 1017.43 1017.51 1017.67 1017.79 1017.91 1017.99 1018.11 1018.23 1018.35 1018.43 1018.55 1018.67 1018.79 1018.83 1018.91 1018.99 1019.07 1019.07 1019.19 1019.31 1019.47 1019.51 1019.59 1019.63 1019.71 1019.75 1019.79 1019.83 1019.91 1019.91 1019.99 1020.03 1020.07 1020.07 1020.03 1019.95 1019.95 1019.91 1019.91 1019.87 1019.91 1019.91 1019.99 1020.11 1020.27 1020.35 1020.39 1020.43 1020.51 1020.63 1020.71 1020.79 1020.83 1020.91 1020.99 1021.07 1021.07 1021.19 1021.19 1021.27 1021.35 1021.35
1016.59 1016.67 1016.79 1016.95 1017.07 1017.23 1017.35 1017.47 1017.55 1017.67 1017.79 1017.91 1018.03 1018.15 1018.27 1018.35 1018.51 1018.63 1018.71 1018.79 1018.87 1018.95 1019.07 1019.19 1019.15 1019.23 1019.35 1019.47 1019.51 1019.55 1019.59 1019.63 1019.71 1019.79 1019.79 1019.91 1019.91 1019.95 1019.99 1020.03 1020.07 1020.03 1019.95 1019.91 1019.87 1019.83 1019.79 1019.83 1019.87 1019.91 1020.07 1020.23 1020.35 1020.39 1020.47 1020.59 1020.67 1020.79 1020.83 1020.91 1020.99 1021.07 1021.11 1021.19 1021.27 1021.35 1021.35 1021.47 1021.47
1016.55 1016.67 1016.79 1016.99 1017.07 1017.23 1017.35 1017.51 1017.59 1017.67 1017.79 1017.91 1018.03 1018.19 1018.31 1018.43 1018.51 1018.63 1018.75 1018.83 1018.91 1018.99 1019.07 1019.15 1019.19 1019.31 1019.35 1019.43 1019.51 1019.55 1019.59 1019.63 1019.63 1019.71 1019.79 1019.87 1019.91 1019.91 1019.95 1019.99 1019.99 1019.99 1019.91 1019.91 1019.79 1019.79 1019.75 1019.79 1019.79 1019.87 1019.99 1020.15 1020.31 1020.43 1020.51 1020.63 1020.71 1020.79 1020.91 1021.03 1021.07 1021.11 1021.19 1021.27 1021.35 1021.43 1021.47 1021.51 1021.51
1016.55 1016.67 1016.79 1016.99 1017.11 1017.27 1017.39 1017.51 1017.59 1017.71 1017.83 1017.95 1018.07 1018.23 1018.35 1018.47 1018.59 1018.67 1018.75 1018.79 1018.87 1018.91 1019.03 1019.15 1019.23 1019.31 1019.35 1019.39 1019.51 1019.55 1019.59 1019.63 1019.63 1019.71 1019.75 1019.79 1019.83 1019.91 1019.91 1019.95 1019.95 1019.95 1019.91 1019.83 1019.79 1019.75 1019.71 1019.75 1019.79 1019.87 1019.99 1020.15 1020.35 1020.47 1020.55 1020.67 1020.75 1020.83 1020.95 1021.07 1021.11 1021.19 1021.23 1021.35 1021.39 1021.51 1021.55 1021.59 1021.63
1016.55 1016.67 1016.79 1016.99 1017.15 1017.27 1017.39 1017.51 1017.59 1017.71 1017.83 1017.99 1018.07 1018.23 1018.35 1018.51 1018.59 1018.63 1018.71 1018.79 1018.83 1018.91 1019.03 1019.19 1019.27 1019.35 1019.35 1019.43 1019.47 1019.51 1019.55 1019.59 1019.63 1019.67 1019.71 1019.71 1019.79 1019.87 1019.91 1019.91 1019.95 1019.91 1019.91 1019.79 1019.67 1019.63 1019.67 1019.71 1019.79 1019.91 1020.03 1020.19 1020.35 1020.51 1020.63 1020.71 1020.79 1020.91 1020.99 1021.07 1021.15 1021.19 1021.27 1021.35 1021.47 1021.55 1021.63 1021.67 1021.71
1016.55 1016.67 1016.79 1016.95 1017.11 1017.27 1017.39 1017.51 1017.63 1017.75 1017.87 1018.03 1018.15 1018.27 1018.39 1018.51 1018.59 1018.63 1018.75 1018.79 1018.83 1018.91 1019.03 1019.15 1019.19 1019.31 1019.35 1019.39 1019.47 1019.51 1019.51 1019.51 1019.59 1019.63 1019.63 1019.67 1019.75 1019.79 1019.87 1019.87 1019.91 1019.91 1019.79 1019.71 1019.63 1019.63 1019.63 1019.71 1019.79 1019.91 1020.07 1020.23 1020.43 1020.59 1020.71 1020.79 1020.87 1020.99 1021.07 1021.19 1021.23 1021.31 1021.35 1021.43 1021.51 1021.59 1021.67 1021.75 1021.79
1016.51 1016.67 1016.83 1016.95 1017.11 1017.23 1017.35 1017.51 1017.63 1017.75 1017.91 1018.07 1018.19 1018.27 1018.39 1018.51 1018.63 1018.67 1018.75 1018.75 1018.79 1018.91 1018.99 1019.07 1019.15 1019.19 1019.31 1019.35 1019.35 1019.43 1019.47 1019.47 1019.51 1019.55 1019.63 1019.63 1019.71 1019.79 1019.83 1019.83 1019.83 1019.79 1019.75 1019.63 1019.59 1019.55 1019.63 1019.75 1019.87 1019.99 1020.15 1020.31 1020.51 1020.63 1020.79 1020.87 1020.95 1021.07 1021.19 1021.31 1021.35 1021.39 1021.43 1021.51 1021.55 1021.63 1021.75 1021.79 1021.83
1016.51 1016.63 1016.79 1016.95 1017.07 1017.23 1017.35 1017.51 1017.63 1017.79 1017.91 1018.07 1018.23 1018.27 1018.35 1018.47 1018.55 1018.63 1018.71 1018.71 1018.79 1018.83 1018.91 1018.99 1019.07 1019.15 1019.19 1019.23 1019.31 1019.35 1019.39 1019.43 1019.51 1019.51 1019.59 1019.63 1019.71 1019.79 1019.79 1019.79 1019.79 1019.75 1019.67 1019.59 1019.51 1019.55 1019.67 1019.79 1019.95 1020.07 1020.23 1020.43 1020.63 1020.75 1020.83 1020.95 1021.07 1021.19 1021.31 1021.35 1021.43 1021.51 1021.51 1021.55 1021.63 1021.71 1021.79 1021.83 1021.87
1016.51 1016.63 1016.79 1016.91 1017.07 1017.19 1017.35 1017.51 1017.63 1017.79 1017.91 1018.03 1018.19 1018.31 1018.35 1018.47 1018.55 1018.63 1018.63 1018.67 1018.75 1018.83 1018.91 1018.95 1019.03 1019.11 1019.19 1019.23 1019.27 1019.31 1019.31 1019.35 1019.39 1019.47 1019.51 1019.59 1019.63 1019.71 1019.79 1019.79 1019.79 1019.75 1019.63 1019.55 1019.55 1019.63 1019.79 1019.95 1020.07 1020.23 1020.35 1020.55 1020.71 1020.79 1020.91 1021.03 1021.19 1021.27 1021.35 1021.43 1021.51 1021.55 1021.59 1021.63 1021.71 1021.79 1021.83 1021.87 1021.91
1016.47 1016.59 1016.75 1016.91 1017.07 1017.19 1017.35 1017.51 1017.63 1017.79 1017.91 1018.03 1018.15 1018.23 1018.35 1018.47 1018.55 1018.63 1018.63 1018.63 1018.75 1018.83 1018.91 1018.91 1018.99 1019.07 1019.15 1019.19 1019.23 1019.23 1019.23 1019.27 1019.35 1019.43 1019.51 1019.51 1019.59 1019.67 1019.75 1019.79 1019.79 1019.71 1019.63 1019.55 1019.63 1019.79 1019.91 1020.03 1020.15 1020.31 1020.51 1020.67 1020.79 1020.91 1021.03 1021.11 1021.19 1021.35 1021.43 1021.51 1021.59 1021.63 1021.63 1021.71 1021.75 1021.79 1021.87 1021.91 1021.95
1016.43 1016.55 1016.71 1016.87 1017.03 1017.15 1017.31 1017.47 1017.63 1017.75 1017.91 1017.99 1018.11 1018.23 1018.35 1018.43 1018.51 1018.59 1018.59 1018.63 1018.71 1018.79 1018.91 1018.91 1018.95 1019.03 1019.07 1019.15 1019.19 1019.19 1019.23 1019.27 1019.35 1019.39 1019.51 1019.51 1019.59 1019.63 1019.71 1019.79 1019.79 1019.75 1019.63 1019.63 1019.71 1019.83 1019.99 1020.11 1020.23 1020.43 1020.59 1020.75 1020.83 1020.95 1021.07 1021.15 1021.27 1021.35 1021.47 1021.51 1021.63 1021.67 1021.71 1021.75 1021.79 1021.87 1021.91 1021.91 1021.91
1016.39 1016.51 1016.67 1016.83 1017.03 1017.15 1017.27 1017.43 1017.55 1017.71 1017.87 1017.99 1018.11 1018.23 1018.31 1018.35 1018.47 1018.51 1018.55 1018.63 1018.67 1018.79 1018.83 1018.91 1018.95 1019.03 1019.07 1019.11 1019.19 1019.23 1019.31 1019.35 1019.35 1019.39 1019.47 1019.55 1019.59 1019.63 1019.67 1019.79 1019.83 1019.79 1019.75 1019.75 1019.83 1019.91 1020.07 1020.23 1020.35 1020.51 1020.63 1020.79 1020.91 1020.99 1021.07 1021.19 1021.31 1021.39 1021.51 1021.55 1021.63 1021.71 1021.79 1021.83 1021.87 1021.91 1021.99 1021.99 1021.91
1016.35 1016.51 1016.63 1016.79 1016.95 1017.11 1017.23 1017.39 1017.51 1017.63 1017.79 1017.95 1018.11 1018.23 1018.31 1018.35 1018.43 1018.51 1018.55 1018.63 1018.67 1018.75 1018.83 1018.91 1018.95 1019.03 1019.07 1019.11 1019.19 1019.27 1019.35 1019.39 1019.43 1019.47 1019.51 1019.55 1019.55 1019.59 1019.67 1019.79 1019.87 1019.87 1019.83 1019.83 1019.91 1020.03 1020.15 1020.23 1020.35 1020.51 1020.71 1020.87 1020.95 1021.03 1021.07 1021.19 1021.35 1021.47 1021.59 1021.63 1021.67 1021.79 1021.83 1021.91 1021.99 1022.07 1022.11 1022.15 1022.07
1016.23 1016.43 1016.59 1016.75 1016.91 1017.07 1017.19 1017.35 1017.51 1017.63 1017.79 1017.91 1018.07 1018.19 1018.23 1018.27 1018.35 1018.47 1018.55 1018.63 1018.71 1018.79 1018.87 1018.95 1019.03 1019.07 1019.07 1019.07 1019.19 1019.27 1019.35 1019.43 1019.51 1019.51 1019.51 1019.51 1019.55 1019.63 1019.71 1019.83 1019.91 1019.91 1019.91 1019.95 1020.03 1020.07 1020.19 1020.27 1020.35 1020.51 1020.71 1020.91 1021.03 1021.07 1021.15 1021.23 1021.39 1021.51 1021.63 1021.71 1021.79 1021.83 1021.91 1022.07 1022.11 1022.15 1022.23 1022.31 1022.31
Wind_Speed
9 7 6 6 6 5 4 2 2 2 2 3 3 3 3 3 3 3 3 3 3 3 3 3 3 3 3 4 6 6 6 7 7 7 7 7 6 5 5 5 6 6 6 5 5 4 4 4 3 2 2 2 2 2 2 2 2 2 2 0 1 2 4 5 6 6 6 6 4
5 5 4 4 4 3 3 3 3 2 2 2 3 3 3 3 4 4 3 3 3 4 4 4 4 4 5 5 6 6 6 6 7 7 7 6 6 5 5 5 5 5 5 5 4 3 3 3 2 2 1 1 2 2 2 3 3 3 4 4 2 1 1 3 3 4 4 5 4
4 4 4 4 4 4 4 3 3 3 3 3 3 3 3 3 4 4 4 4 4 4 4 4 4 4 5 6 6 6 6 6 6 6 6 6 5 5 5 5 5 5 4 3 3 2 2 2 2 1 1 1 2 2 2 2 3 3 3 3 2 2 1 1 1 1 2 2 2
4 4 4 5 6 6 5 4 4 4 4 4 4 4 4 4 4 4 4 4 4 4 4 4 4 4 5 6 6 6 6 6 6 6 6 5 5 5 4 4 4 4 3 3 3 2 2 2 2 1 2 2 2 2 1 1 2 2 2 2 2 2 2 2 2 2 2 2 2
4 4 4 5 6 6 5 5 5 5 4 4 4 4 4 4 4 4 4 5 4 4 4 4 4 4 5 6 7 7 6 7 6 6 5 5 4 4 4 4 4 3 3 3 3 3 2 2 2 2 2 2 2 1 1 1 2 2 2 2 2 2 2 2 2 2 2 2 2
4 3 4 4 5 5 5 5 6 5 5 4 5 5 5 4 4 4 5 5 5 5 5 6 5 5 6 6 6 6 6 6 5 5 5 4 4 4 4 4 4 4 3 3 3 3 2 2 2 2 2 2 2 1 1 2 3 3 2 2 2 2 2 2 2 2 2 3 3
4 4 4 5 6 6 6 5 6 6 5 5 7 7 6 6 6 6 6 5 5 5 5 5 5 6 6 6 6 6 5 5 5 5 4 4 4 4 4 4 4 4 3 3 3 3 2 2 2 2 2 2 2 2 2 2 3 3 3 2 2 2 2 2 2 2 2 4 4
5 5 5 6 6 7 7 6 6 6 5 5 6 7 8 8 8 7 6 5 4 4 4 3 4 5 6 6 6 6 5 5 4 4 4 4 4 4 4 4 3 3 3 3 3 3 3 2 2 2 2 2 2 2 2 3 4 4 4 3 2 2 2 2 2 2 3 4 4
5 5 6 6 7 7 7 7 6 6 6 6 6 7 7 8 8 8 6 5 4 4 4 3 4 5 6 6 6 6 5 5 4 4 4 4 4 4 3 3 3 3 3 3 3 3 3 3 2 2 2 2 2 2 3 4 5 5 4 3 2 2 2 2 2 3 3 4 5
6 6 6 6 6 7 7 7 7 7 8 8 7 7 7 7 7 6 5 4 4 4 4 3 4 5 6 6 6 5 5 4 4 4 4 4 4 3 3 3 3 3 3 3 3 3 3 3 3 3 2 2 2 3 3 4 5 5 4 3 3 3 3 3 3 3 4 4 4
7 6 6 6 7 7 8 8 7 7 8 8 8 7 7 7 6 5 5 4 5 4 4 3 5 6 6 6 5 5 4 4 4 4 4 4 4 3 3 3 3 3 3 2 2 2 3 3 3 3 3 3 3 3 4 4 5 4 4 3 3 4 4 3 3 3 4 4 5
7 7 7 7 7 8 9 8 7 7 7 8 8 7 7 6 6 5 5 5 5 4 4 4 5 6 6 5 5 4 4 4 4 4 4 4 4 4 3 3 3 3 3 2 2 2 3 3 4 4 4 3 2 2 3 4 4 4 4 3 3 4 4 4 3 3 3 4 5
8 7 7 8 8 9 9 8 7 6 7 7 7 7 6 5 5 5 6 6 6 5 4 4 4 5 5 5 5 4 4 4 4 4 4 4 4 4 4 4 4 4 3 2 2 2 3 4 4 4 4 3 3 2 3 4 4 4 4 4 4 4 4 4 4 4 4 5 5
8 8 8 8 9 9 8 8 6 6 6 7 7 6 6 5 5 5 5 6 6 5 4 4 4 4 4 5 4 4 4 4 4 4 4 4 4 4 4 4 4 4 4 3 3 3 3 4 4 4 4 4 3 3 3 3 4 4 4 4 4 4 4 4 4 4 5 5 5
8 8 8 8 8 8 8 7 6 6 6 7 6 6 5 5 5 5 6 6 6 5 4 4 3 3 4 4 4 4 4 4 4 5 5 5 4 4 4 4 4 4 3 3 3 3 4 4 4 3 4 4 3 3 3 3 3 3 4 4 4 4 5 4 4 4 5 5 5
8 7 7 7 7 7 7 6 6 6 6 6 6 6 6 5 5 5 6 6 5 5 4 4 4 3 3 3 3 4 4 4 5 5 5 5 4 4 4 4 4 4 3 3 3 3 3 3 3 3 3 3 3 3 3 3 3 3 3 3 4 4 4 4 4 5 5 5 5
7 7 7 7 8 8 7 6 6 5 6 6 6 6 6 5 5 5 6 6 5 5 5 4 4 3 3 3 4 4 4 5 5 5 5 5 4 4 4 4 3 3 3 3 4 4 3 3 3 3 3 3 3 3 3 3 3 3 3 3 3 3 3 4 4 4 4 5 5
7 7 7 7 8 8 8 7 6 6 6 6 6 6 5 5 5 5 5 5 5 5 5 5 4 4 4 5 4 4 4 5 5 5 4 4 4 4 4 3 3 3 3 3 4 4 4 4 3 3 3 3 3 3 3 3 3 3 3 3 3 3 3 3 3 3 4 4 4
7 7 7 8 8 8 8 8 7 7 7 6 6 6 5 5 6 5 5 5 5 5 6 5 5 5 5 5 5 4 4 5 5 5 5 4 4 4 4 3 3 3 3 3 3 3 3 3 4 4 4 4 3 3 3 3 3 3 3 3 3 3 3 3 3 3 3 4 4
7 8 8 8 8 8 8 8 8 7 6 6 6 6 6 5 5 5 5 5 5 5 6 6 6 6 5 5 5 5 4 4 5 5 4 4 4 4 4 3 3 3 3 3 3 3 3 3 4 4 4 4 4 4 3 3 3 3 3 3 3 3 3 3 3 3 3 3 3
7 7 8 8 8 8 8 7 7 7 7 6 6 6 6 5 5 5 5 5 5 5 6 6 6 6 6 6 5 5 4 4 4 4 4 4 4 3 3 3 3 3 2 2 2 3 3 3 4 4 4 4 4 4 4 4 4 4 3 3 3 3 3 3 3 3 3 2 2
6 6 7 8 8 8 8 7 7 7 7 6 6 6 6 6 5 5 5 4 5 5 6 6 6 6 6 6 6 5 4 4 4 4 4 4 3 3 3 3 3 3 3 2 2 3 3 3 4 4 4 4 4 4 5 5 4 4 4 4 3 3 3 3 3 3 2 2 2
6 6 6 7 7 8 8 7 7 7 7 7 6 6 6 6 5 5 5 5 6 6 6 5 6 6 6 6 6 6 5 5 5 5 4 4 3 3 2 2 3 3 3 2 2 3 3 4 4 4 4 4 4 4 5 5 5 5 5 4 4 4 3 3 2 2 2 2 2
7 6 6 6 7 7 7 7 7 7 7 7 7 6 6 6 5 5 5 6 6 6 6 5 5 6 6 6 6 6 6 6 5 5 4 4 3 3 2 2 2 2 2 2 3 4 4 4 4 4 4 4 4 4 4 4 5 5 5 5 5 4 4 3 2 3 3 3 3
7 7 7 7 7 7 7 8 8 8 7 7 7 6 6 6 5 5 5 5 5 6 6 6 6 6 6 6 6 6 6 6 5 5 4 4 3 3 3 2 2 2 2 2 5 6 7 6 5 4 4 4 4 4 4 4 4 5 5 6 6 5 4 3 3 3 3 3 3
8 8 8 8 8 8 8 8 8 8 7 7 7 6 6 5 5 5 5 4 4 5 6 6 6 6 5 5 5 5 5 5 5 5 5 4 4 3 3 3 2 2 2 4 6 8 8 9 8 6 5 4 4 4 4 4 5 5 5 5 5 5 5 4 4 4 3 3 3
8 8 8 8 8 8 8 8 8 7 7 7 7 6 5 4 4 4 4 4 4 4 4 5 5 5 5 5 5 5 4 4 4 4 5 5 5 4 4 3 3 2 3 6 8 9 9 10 10 9 7 4 4 4 4 4 5 5 5 4 4 4 5 5 5 5 4 3 3
8 8 8 8 8 8 8 7 8 8 7 7 7 6 5 4 5 5 4 4 4 4 3 3 4 4 4 4 4 5 5 4 4 4 4 5 5 5 4 3 3 3 5 7 9 10 10 10 11 10 9 6 4 4 4 5 4 4 3 3 4 4 5 5 5 5 4 4 3
8 8 8 8 8 8 7 8 8 8 7 7 6 6 5 5 5 5 4 5 5 4 3 2 3 3 3 4 4 5 5 5 5 4 4 5 4 4 4 4 4 4 6 9 10 10 10 10 11 11 11 9 5 3 3 4 4 4 3 3 4 4 5 5 4 4 4 4 3
9 9 8 8 8 8 8 8 8 8 7 6 6 6 6 5 5 5 4 5 5 4 3 3 3 3 4 4 4 4 4 4 4 4 4 4 4 4 4 4 4 5 7 10 11 11 10 10 11 11 11 10 6 4 3 4 4 4 4 4 4 5 5 5 5 4 4 4 4
8 9 9 8 8 8 7 7 7 7 7 6 7 6 6 6 5 4 4 4 4 4 4 4 4 4 4 4 4 4 4 4 4 4 4 4 5 4 4 5 5 5 7 10 11 11 10 10 11 11 11 10 7 5 4 4 4 4 4 4 5 5 5 5 5 5 4 4 4
9 9 9 8 8 8 7 7 7 7 7 7 7 7 6 5 4 4 4 4 4 5 5 4 4 4 4 4 4 4 4 4 4 4 4 4 4 4 4 5 5 6 8 11 11 11 11 11 11 11 11 10 7 6 5 5 5 4 4 5 5 5 5 4 4 4 4 4 4
9 9 8 8 8 7 7 7 7 7 7 7 7 6 6 5 4 3 3 4 5 5 5 5 5 5 5 5 4 4 4 4 5 5 5 4 4 4 5 5 4 6 8 11 11 11 11 11 11 11 11 10 7 6 5 5 4 4 4 4 4 4 4 4 4 4 4 4 3
9 8 8 8 8 7 6 6 6 7 7 7 7 6 6 5 4 4 4 4 4 4 5 5 5 5 5 5 4 4 4 4 4 4 5 5 5 5 5 4 4 6 9 11 11 11 11 11 11 11 11 10 7 5 5 5 4 4 4 4 3 3 3 3 3 3 3 3 3
9 9 8 8 7 7 6 6 6 7 7 7 6 6 6 5 5 4 4 4 4 4 4 4 4 4 4 3 4 4 4 5 5 5 5 5 5 5 5 4 4 6 9 11 10 10 11 11 11 11 11 9 6 5 5 5 5 5 5 4 3 3 3 3 3 3 3 3 4
8 9 8 8 7 7 6 6 6 7 7 7 6 6 5 5 4 4 4 4 4 4 4 4 4 4 4 3 3 4 4 5 5 5 5 6 6 6 5 4 4 6 9 10 9 10 11 11 12 11 10 7 5 4 5 5 5 5 5 5 4 4 3 3 3 3 3 4 5
8 8 8 8 7 7 7 6 6 7 7 7 6 5 5 5 3 3 3 4 4 4 4 4 5 5 5 4 3 3 3 4 4 5 5 6 6 6 5 4 3 5 7 8 9 10 11 11 12 11 9 6 5 5 5 4 4 5 5 6 5 4 4 4 4 4 4 4 5
7 8 8 7 7 7 6 6 6 6 6 6 5 5 4 4 3 3 3 4 4 4 4 4 4 4 4 4 4 3 3 4 4 5 5 6 6 6 5 4 3 3 5 8 10 11 11 11 12 11 9 6 5 5 5 4 4 4 5 5 4 4 4 3 4 4 4 5 7
8 7 7 7 7 7 6 6 6 6 6 5 4 4 4 4 3 3 3 4 3 4 4 4 4 4 4 4 4 3 3 3 4 4 5 5 5 6 5 4 3 3 4 8 10 10 11 11 12 11 10 6 5 5 4 4 4 4 4 4 4 4 4 3 3 3 3 4 8
8 8 7 7 7 7 7 7 7 6 5 5 5 4 4 4 3 3 3 3 3 3 3 3 4 4 4 5 5 4 4 3 3 4 4 5 6 6 6 5 4 4 5 8 9 10 11 11 12 12 10 6 4 4 4 4 4 4 4 4 4 3 3 3 3 3 3 2 5
8 8 8 8 7 7 7 7 6 6 5 5 5 5 4 4 3 3 3 3 3 3 3 3 4 5 5 5 5 5 4 4 3 3 4 5 6 6 6 5 5 4 5 6 9 10 11 12 12 12 10 6 4 4 4 4 5 5 4 4 4 3 3 2 2 3 2 2 1
Wind_Direction
224 212 198 186 182 179 173 150 131 135 149 158 158 156 150 143 132 120 107 103 104 102 99 95 96 91 82 73 75 75 74 70 68 66 64 61 59 55 50 46 44 40 34 27 25 27 29 30 40 48 50 44 39 30 19 6 6 6 4 3 214 200 195 193 195 195 192 191 187
190 177 161 147 139 130 118 106 98 97 102 113 123 126 125 124 120 112 104 99 103 106 106 102 97 91 84 76 75 76 76 75 72 68 64 58 55 53 50 49 47 43 38 29 29 31 35 38 46 54 58 56 51 38 23 13 26 32 34 30 25 55 161 176 184 187 188 187 179
144 131 121 118 118 116 113 109 104 100 97 95 98 100 102 105 106 104 101 97 98 100 102 103 98 93 88 82 78 79 80 82 79 75 70 62 58 56 56 57 55 51 46 37 36 40 45 48 53 62 68 72 74 63 43 25 40 44 39 24 14 19 45 89 106 134 153 159 152
125 121 120 121 123 124 123 122 115 110 107 104 96 91 90 93 97 99 99 93 88 89 95 103 101 96 91 89 85 83 82 84 84 83 81 73 68 66 66 67 63 59 53 46 44 48 57 65 68 70 72 82 92 97 95 79 68 61 48 23 12 14 21 30 33 52 78 99 105
123 123 125 128 128 127 125 121 118 115 110 105 97 92 90 92 95 96 93 86 85 89 95 99 99 97 94 92 91 89 86 82 84 86 86 82 77 74 71 68 64 58 52 46 44 48 59 75 80 78 75 78 84 90 109 112 100 91 73 39 23 18 16 21 22 36 61 86 86
126 121 120 122 122 119 116 114 114 112 109 102 100 99 97 94 91 90 92 95 97 95 94 93 94 95 94 94 94 92 88 85 87 89 90 88 83 76 72 68 64 59 53 49 47 48 56 74 83 82 77 79 74 61 58 89 109 108 95 64 37 28 26 28 25 44 72 95 96
124 120 117 117 116 115 114 112 109 108 105 103 104 106 106 102 97 96 99 105 104 99 95 94 96 99 100 99 95 92 91 91 90 90 91 90 85 80 76 74 72 69 65 62 60 58 59 67 79 81 78 80 74 60 55 77 106 109 103 83 55 44 44 45 45 66 90 106 107
111 113 115 116 114 114 113 113 111 109 107 105 109 112 113 110 109 109 108 107 106 104 102 101 102 104 105 104 101 99 97 96 94 91 92 94 93 93 93 92 90 86 81 78 78 77 74 71 76 78 77 76 74 65 66 78 94 101 102 97 76 58 55 59 64 81 99 110 111
105 105 105 105 106 107 108 109 110 109 108 104 106 109 111 112 113 113 111 110 109 105 102 100 100 101 102 103 103 104 103 102 100 98 98 102 106 109 110 107 102 96 90 85 87 88 88 85 78 73 71 74 78 76 78 85 94 99 103 104 95 81 71 71 76 86 98 106 110
111 107 103 99 100 101 101 98 97 98 98 98 98 100 102 103 105 107 110 112 103 96 92 95 98 98 99 102 104 106 107 107 107 107 108 109 112 115 116 115 111 104 98 91 92 96 98 96 89 79 71 71 79 84 87 91 99 103 107 110 108 100 91 83 87 93 100 105 110
112 108 105 104 102 100 97 92 89 90 92 96 96 95 95 96 99 101 102 99 91 88 90 95 99 101 102 104 107 109 112 114 116 117 116 113 112 111 111 109 107 104 101 97 99 103 104 103 98 90 82 74 80 88 95 99 104 108 111 114 115 111 105 97 100 104 109 112 112
108 104 102 103 101 99 96 94 93 93 94 97 96 96 95 96 99 99 95 90 90 90 92 93 99 103 106 110 112 115 119 122 123 123 122 118 114 108 101 95 93 91 90 89 97 103 105 104 105 102 98 88 88 95 105 110 113 116 118 121 120 116 113 113 115 120 123 122 119
109 106 104 103 101 100 99 99 99 99 99 100 100 100 100 100 100 99 96 94 96 96 95 93 99 105 111 116 120 123 126 129 128 127 124 120 113 105 96 89 87 85 82 79 81 92 100 104 108 110 111 107 105 109 116 122 125 129 132 132 126 122 122 127 131 132 131 129 127
111 110 110 109 106 105 104 105 105 106 106 106 107 107 106 104 103 103 102 102 103 103 101 98 101 109 116 122 126 128 130 131 128 124 119 113 107 102 97 93 90 88 86 83 81 87 94 102 108 113 117 118 116 116 120 126 132 137 140 139 134 132 133 138 140 139 137 135 133
113 114 114 113 111 110 110 111 113 113 114 114 115 114 112 111 110 109 108 108 108 108 106 105 107 111 116 120 126 129 128 123 120 117 113 108 104 101 101 100 97 96 96 94 90 90 93 100 106 112 118 122 123 122 122 124 130 134 138 140 139 141 143 147 148 146 143 141 138
117 117 117 115 114 115 115 117 119 120 121 122 122 119 117 118 116 114 113 113 112 110 109 110 109 106 102 105 111 111 108 104 106 109 110 109 105 104 103 104 105 105 105 103 100 97 96 98 103 109 116 123 125 125 124 123 124 126 129 132 137 143 148 151 151 149 147 144 142
120 120 120 118 119 119 121 122 124 126 127 128 126 124 123 124 122 120 119 120 119 117 115 114 108 98 87 80 81 85 90 91 95 101 106 110 109 107 105 107 110 113 113 111 109 107 105 103 104 106 111 117 122 124 124 123 121 121 122 124 129 136 144 149 148 147 145 141 141
123 124 123 123 124 125 127 128 130 132 133 133 131 129 128 128 128 128 127 127 127 126 123 118 107 96 87 81 77 82 89 94 96 99 103 107 108 107 105 106 110 113 115 116 118 119 118 116 112 111 111 114 117 120 121 120 120 119 119 119 120 122 126 130 132 133 134 135 134
129 128 128 129 131 132 133 135 136 138 138 138 136 133 132 131 131 131 131 132 131 129 126 118 107 98 93 91 89 91 96 100 101 103 103 103 102 101 101 103 105 109 114 120 124 127 127 126 123 120 119 119 119 119 117 117 116 115 114 114 113 112 111 111 111 114 118 124 127
135 135 136 137 137 138 139 140 141 141 141 139 136 134 132 130 126 124 124 125 125 124 122 117 110 105 101 98 96 96 99 102 103 102 101 97 96 96 98 100 100 102 108 117 124 128 130 130 127 127 127 128 128 126 123 118 115 113 111 110 109 111 111 110 109 109 110 115 122
140 141 142 141 141 141 142 143 141 139 137 134 131 129 125 120 114 113 113 113 109 109 112 114 114 112 109 105 101 99 98 97 97 97 96 92 91 92 95 98 96 94 97 106 118 127 132 135 134 134 135 137 138 137 134 129 123 119 116 114 112 112 114 115 114 112 110 107 109
144 143 143 142 141 140 140 138 135 132 129 126 123 119 114 109 105 104 102 99 97 100 105 111 114 115 114 111 108 105 100 92 91 92 93 90 88 85 85 89 91 93 95 104 122 134 139 142 142 143 144 146 147 146 143 139 134 130 126 123 120 119 119 121 116 109 98 86 83
144 142 140 139 136 134 133 130 126 124 121 119 116 112 108 105 101 97 93 91 93 97 102 107 110 112 113 113 112 109 104 97 93 92 91 91 89 86 83 87 97 105 113 125 137 143 146 150 151 152 152 152 152 151 149 145 141 138 135 133 132 131 131 127 111 93 80 76 80
141 139 137 134 131 129 127 125 122 121 119 118 116 113 109 105 101 95 92 93 97 100 104 107 108 109 110 111 112 112 110 107 104 101 98 99 103 105 106 108 116 127 139 153 162 163 162 160 159 159 158 158 156 154 152 150 148 146 144 143 143 144 142 132 104 90 86 87 86
139 137 135 132 130 128 126 125 124 124 123 122 118 114 111 107 104 101 99 100 104 109 112 114 113 112 112 114 115 116 117 119 120 120 120 120 126 132 135 139 146 153 164 177 181 179 175 172 169 165 163 162 159 156 154 154 153 152 151 152 153 152 147 132 111 102 99 98 92
139 137 136 134 131 130 129 129 129 128 126 123 119 116 114 113 110 109 108 110 114 117 120 122 121 121 122 122 123 124 126 128 134 137 141 146 153 159 162 165 168 172 183 194 193 190 186 181 176 172 167 162 160 159 157 159 158 158 158 158 158 154 146 134 124 116 109 100 88
140 139 139 136 132 132 133 133 131 129 127 125 123 122 121 120 116 115 116 119 121 120 120 123 125 127 128 129 132 135 139 143 147 151 155 162 170 174 177 179 182 187 196 202 203 201 196 190 182 176 169 161 161 161 161 161 161 159 156 155 150 144 139 135 133 128 119 102 82
144 143 140 136 135 135 135 133 132 132 132 131 130 129 127 123 120 121 124 127 124 121 118 121 125 127 129 134 141 147 152 157 161 165 169 173 178 180 181 185 191 198 203 206 209 209 205 197 187 178 171 164 161 159 159 157 154 148 141 136 133 133 133 135 134 130 123 112 95
147 144 141 139 139 139 137 136 137 138 138 136 134 131 128 124 125 127 130 132 131 130 131 133 129 130 135 146 152 155 158 163 167 171 175 180 183 182 182 185 195 205 210 211 213 213 209 200 188 179 172 167 161 155 151 147 141 136 132 130 132 134 134 134 132 128 124 118 109
149 146 144 143 142 142 142 143 143 142 140 137 134 131 129 128 129 131 134 138 140 143 145 144 139 143 150 154 156 159 163 168 171 173 175 180 183 182 182 186 197 209 216 216 216 213 208 198 187 178 171 164 150 137 134 135 133 133 134 135 136 136 135 133 130 127 125 120 112
150 148 146 145 144 145 146 146 144 143 141 138 137 135 135 135 137 140 142 145 146 146 144 141 144 151 157 159 159 162 166 170 172 175 178 183 184 183 184 190 198 212 220 221 217 211 202 193 183 174 166 156 143 134 132 133 133 135 138 141 141 140 136 132 131 129 127 122 116
151 149 147 145 146 146 146 144 144 143 142 141 141 141 142 143 146 148 148 146 145 145 146 148 153 158 162 163 165 168 171 173 176 179 182 184 182 182 185 193 201 215 222 223 215 206 195 185 175 165 156 146 137 130 128 131 132 134 137 141 143 142 140 137 136 135 132 128 121
151 149 148 147 148 147 145 143 143 143 143 144 145 146 147 149 148 146 145 144 147 151 156 161 164 166 168 171 173 175 176 178 181 185 186 185 181 182 186 196 205 218 223 223 212 200 187 175 165 155 147 138 129 124 124 125 128 131 136 141 144 144 143 141 142 143 142 137 128
152 150 148 148 148 147 144 142 141 142 143 145 148 150 150 150 149 150 152 153 155 160 165 169 170 172 173 174 175 177 180 184 186 187 187 184 180 182 188 197 209 222 223 221 206 191 177 164 156 148 141 131 124 119 119 120 122 127 131 137 138 138 137 140 145 147 145 138 126
152 150 149 149 149 147 145 141 141 141 144 148 152 154 155 154 156 160 162 161 162 166 170 173 172 172 174 176 176 179 182 186 187 187 184 179 178 181 189 199 214 226 225 218 197 178 163 154 149 143 136 126 120 116 117 117 119 121 124 125 123 120 119 124 132 136 136 131 124
153 151 149 149 149 148 146 143 142 144 148 152 155 158 160 161 163 165 164 160 161 165 171 172 170 170 173 178 182 184 185 185 185 183 179 174 173 178 185 197 217 228 224 209 179 161 152 149 145 139 132 122 117 115 116 117 117 116 114 111 107 104 104 107 113 117 121 122 124
156 153 150 149 150 150 150 147 146 149 153 158 160 162 163 164 167 167 160 154 158 166 171 172 172 174 176 178 181 182 181 177 174 172 170 168 168 172 178 190 216 227 215 187 161 151 149 149 145 139 131 122 121 120 119 118 116 112 107 103 99 95 93 97 102 108 113 119 123
161 157 154 153 154 155 155 154 155 158 162 164 164 164 164 163 165 165 161 156 160 168 173 173 172 172 171 168 165 162 159 159 157 158 161 162 164 166 168 175 201 211 190 163 152 150 152 152 147 142 137 129 129 128 126 123 118 113 107 102 96 89 83 83 88 95 106 119 127
166 163 161 160 160 161 162 164 167 169 169 167 166 165 165 162 164 164 162 157 161 168 170 166 162 157 151 146 139 134 131 134 142 147 151 157 161 161 160 157 164 166 159 152 151 154 157 157 153 148 143 135 134 132 130 126 120 114 109 103 95 85 74 68 70 76 92 114 131
170 168 167 167 168 170 172 176 178 176 172 167 167 167 167 165 163 159 155 151 154 157 157 149 146 142 139 135 130 125 120 118 125 136 145 152 156 155 152 142 142 143 146 150 154 159 162 162 158 153 147 134 133 131 129 127 122 117 112 106 101 92 79 61 57 57 65 84 129
172 171 171 172 173 175 178 182 181 178 173 170 170 170 168 162 155 149 145 142 143 144 143 139 139 139 137 135 131 129 126 123 125 132 140 145 148 148 146 137 137 137 143 152 160 165 167 167 162 157 150 136 131 129 129 128 126 124 122 118 113 108 99 80 59 50 46 44 94